Asheville, NC

1:53 PM EDT on October 20, 2019 (GMT -0400)
Asheville Regional

Weather History for KAVL - May, 2019

Change the Weather History Date:

Monday, May 27, 2019

  Actual Average Record
Temperature  
Mean Temperature 77 °F 66 °F  
Max Temperature 88 °F 77 °F 93 °F (1890)
Min Temperature 65 °F 55 °F 36 °F (1961)
Degree Days  
Heating Degree Days 0 2  
Month to date heating degree days 25 103  
Since 1 July heating degree days 3552 4175  
Cooling Degree Days 12 3  
Month to date cooling degree days 122 41  
Year to date cooling degree days 139 49  
Growing Degree Days 26 (Base 50)    
Moisture  
Dew Point 57 °F    
Average Humidity 53    
Maximum Humidity 73    
Minimum Humidity 32    
Precipitation  
Precipitation 0.00 in 0.13 in 4.39 in (1973)
Month to date precipitation 3.35 3.15  
Year to date precipitation 27.14 17.74  
Snow  
Snow 0.00 in 0.00 in 0.00 in ()
Month to date snowfall 0.0 0.0  
Since 1 July snowfall 11.4 9.9  
Snow Depth 0.00 in    
Sea Level Pressure  
Sea Level Pressure 30.00 in    
Wind  
Wind Speed 6 mph (NNW)    
Max Wind Speed 17 mph    
Max Gust Speed 22 mph    
Visibility 10 miles    
Events      
T = Trace of Precipitation, MM = Missing Value Source: NWS Daily Summary

Daily Weather History Graph

Daily Weather History Graph

Search for Another Location

Airport or City:

Astronomy

May. 27, 2019 Rise Set
Actual Time 6:18 AM EDT 8:36 PM EDT
Civil Twilight 5:49 AM EDT 9:05 PM EDT
Nautical Twilight 5:13 AM EDT 9:41 PM EDT
Astronomical Twilight 4:34 AM EDT 10:20 PM EDT
Moon 2:43 AM EDT (5/27) 2:05 PM EDT (5/27)
Length of Visible Light 15h 16m
Length of Day
14h 18m
Last Quarter, 41% of the Moon is Illuminated
May 27
Last Quarter
Jun 3
New
Jun 10
First Quarter
Jun 17
Full
Jun 25
Last Quarter

Hourly Weather History & Observations

Time (EDT) Temp. Heat Index Dew Point Humidity Pressure Visibility Wind Dir Wind Speed Gust Speed Precip Events Conditions
12:54 AM 66.9 °F - 55.9 °F 68% 30.04 in 10.0 mi Calm Calm - N/A   Clear
1:54 AM 66.0 °F - 57.0 °F 73% 30.04 in 10.0 mi Calm Calm - N/A   Clear
2:54 AM 69.1 °F - 55.0 °F 61% 30.02 in 10.0 mi Calm Calm - N/A   Clear
3:54 AM 69.1 °F - 55.0 °F 61% 30.01 in 10.0 mi NNW 10.4 mph - N/A   Clear
4:54 AM 69.1 °F - 55.9 °F 63% 30.00 in 10.0 mi NW 3.5 mph - N/A   Clear
5:54 AM 66.9 °F - 57.0 °F 70% 30.02 in 10.0 mi Calm Calm - N/A   Clear
6:54 AM 68.0 °F - 57.0 °F 68% 30.04 in 10.0 mi North 6.9 mph - N/A   Clear
7:54 AM 73.0 °F - 59.0 °F 61% 30.05 in 10.0 mi North 3.5 mph - N/A   Clear
8:54 AM 75.9 °F - 60.1 °F 58% 30.06 in 10.0 mi NNW 6.9 mph - N/A   Clear
9:54 AM 77.0 °F - 60.1 °F 56% 30.05 in 10.0 mi North 12.7 mph - N/A   Clear
10:54 AM 81.0 °F 81.7 °F 61.0 °F 50% 30.05 in 10.0 mi North 8.1 mph - N/A   Clear
11:54 AM 82.9 °F 82.8 °F 59.0 °F 44% 30.04 in 10.0 mi NNW 15.0 mph - N/A   Scattered Clouds
12:54 PM 86.0 °F 84.9 °F 57.0 °F 37% 30.03 in 10.0 mi NNW 13.8 mph - N/A   Partly Cloudy
1:54 PM 86.0 °F 84.9 °F 57.0 °F 37% 30.01 in 10.0 mi NNW 10.4 mph 18.4 mph N/A   Clear
2:54 PM 86.0 °F 84.7 °F 55.9 °F 36% 29.98 in 10.0 mi NNW 12.7 mph 19.6 mph N/A   Clear
3:54 PM 87.1 °F 85.7 °F 55.9 °F 35% 29.97 in 10.0 mi North 6.9 mph 17.3 mph N/A   Clear
4:54 PM 86.0 °F 84.5 °F 55.0 °F 35% 29.96 in 10.0 mi NNW 11.5 mph - N/A   Clear
5:54 PM 86.0 °F 84.0 °F 53.1 °F 32% 29.95 in 10.0 mi North 9.2 mph - N/A   Clear
6:54 PM 84.9 °F 83.3 °F 54.0 °F 34% 29.95 in 10.0 mi North 8.1 mph - N/A   Clear
7:54 PM 81.0 °F 80.8 °F 55.9 °F 42% 29.95 in 10.0 mi NNW 5.8 mph - N/A   Clear
8:54 PM 75.9 °F - 57.9 °F 54% 29.96 in 10.0 mi West 3.5 mph - N/A   Clear
9:54 PM 75.0 °F - 57.9 °F 55% 29.96 in 10.0 mi Calm Calm - N/A   Clear
10:54 PM 71.1 °F - 59.0 °F 66% 29.97 in 10.0 mi Calm Calm - N/A   Clear
11:54 PM 69.1 °F - 59.0 °F 70% 29.96 in 10.0 mi Calm Calm - N/A   Clear